Regional Weather Roundup
Issued by NWS

Home | Current Version | Previous Version | Graphics & Text | Print | Product List | Glossary On
Versions: 1 2 3 4 5 6 7 8 9 10 11 12 13 14 15 16 17 18 19 20 21 22 23 24 25 26 27 28 29 30 31 32 33 34 35 36 37 38 39 40 41 42 43 44 45 46 47 48 49 50
200
ASUS43 KFSD 122210
RWRSD

WEATHER ROUNDUP FOR SOUTH DAKOTA
NATIONAL WEATHER SERVICE SIOUX FALLS SD
400 PM CST FRI FEB 12 2016

NOTE: "FAIR" INDICATES FEW OR NO CLOUDS BELOW 12,000 FEET WITH NO
SIGNIFICANT WEATHER AND/OR OBSTRUCTIONS TO VISIBILITY.


SDZ001>005-009-010-012>017-122300-
NORTHWEST AND NORTH CENTRAL SOUTH DAKOTA

CITY           SKY/WX    TMP DP  RH WIND       PRES   REMARKS
BUFFALO          N/A     24  17  74 SE16      30.28F WCI  11
FAITH            N/A     20  11  68 E10       30.41F WCI   9
MOBRIDGE       MOSUNNY   17   6  62 NE7       30.51F WCI   8
$$

SDZ012>016-024>037-041>051-057-063-072>074-122300-
SOUTHWEST AND SOUTH CENTRAL SOUTH DAKOTA

CITY           SKY/WX    TMP DP  RH WIND       PRES   REMARKS
RAPID CTY ARPT FOG       25  24  96 SE15      30.34F VSB 1/4 WCI  13
PIERRE         CLOUDY    21  10  62 E8        30.51S WCI  11
CUSTER         CLOUDY    28  25  88 S9G18     30.23S FOG     WCI  19
ELLSWORTH AFB  FRZ RAIN  25  25  99 SE13      30.33  VSB 1/2 WCI  14
PHILIP         CLOUDY    25  16  68 E9        30.45S WCI  15
PINE RIDGE     CLOUDY    34  26  72 E9        30.34F WCI  27
SPEARFISH      PTSUNNY   28  27  93 NE5       30.28F WCI  23
WINNER         CLOUDY    23  13  65 E8        30.50R WCI  14
$$

SDZ004>011-016>023-039-040-122300-
NORTHEAST SOUTH DAKOTA

CITY           SKY/WX    TMP DP  RH WIND       PRES   REMARKS
ABERDEEN       CLOUDY     7  -5  57 N14       30.63R WCI -10
WATERTOWN      SUNNY      4  -7  60 N14       30.54R WCI -14
BROOKINGS      SUNNY      6  -6  57 N13       30.54  WCI -10
SISSETON         N/A      2  -7  66 N17       30.63R WCI -18
$$

SDZ017-020-022-023-036>040-048>070-122300-
SOUTHEAST SOUTH DAKOTA

CITY           SKY/WX    TMP DP  RH WIND       PRES   REMARKS
SIOUX FALLS    MOSUNNY   10  -1  61 N12       30.56R WCI  -5
HURON          SUNNY     11   0  61 N13       30.61R WCI  -4
CHAMBERLAIN    MOSUNNY   18   8  65 NE8       30.55R WCI   8
MITCHELL       SUNNY     13   3  64 N13       30.60R WCI  -2
YANKTON        SUNNY     16   1  53 N14       30.59R WCI   1
$$

ABBREVIATIONS USED IN REMARKS
   TC - TEMPERATURE IN CELSIUS
  WCI - WIND CHILL INDEX
   HX - HEAT INDEX
  VSB - VISIBILITY





USA.gov is the U.S. government's official web portal to all federal, state and local government web resources and services.